Wind_Speed
15 14 15 15 15 15 14 14 14 12 12 13 13 12 11 10 11 10 9 9 8 8 8 8 8 7 7 8 8 7 7 7 7 7 7 8 8 8 8 9 9 9 8
16 16 16 17 16 14 14 14 14 13 12 12 12 12 11 10 10 10 10 9 8 8 8 8 8 8 8 8 8 8 9 9 9 9 8 8 9 9 9 10 10 10 10
16 17 17 17 17 15 15 15 14 14 14 13 13 12 11 10 10 10 10 10 10 9 9 9 9 9 9 9 9 9 9 9 9 10 10 10 10 11 11 11 11 11 11
18 18 18 17 17 16 15 15 15 14 13 13 13 12 11 11 10 10 10 10 10 11 11 11 11 10 10 10 10 10 10 9 10 10 10 10 11 12 12 12 11 11 12
19 18 18 17 16 15 15 15 14 13 13 13 13 12 11 10 10 10 10 10 10 12 12 12 11 10 10 10 10 10 10 10 10 10 11 11 11 12 12 12 12 12 12
19 19 18 18 16 15 16 15 14 12 12 12 12 11 11 10 10 10 10 10 11 11 11 12 12 12 11 11 11 11 12 12 12 12 12 12 12 12 13 13 13 13 12
18 18 18 17 17 16 16 14 13 13 12 12 12 11 11 11 11 11 11 11 11 11 12 12 12 12 11 12 12 13 13 13 13 14 13 13 13 13 13 12 13 13 13
19 19 19 17 17 15 15 14 14 13 13 13 13 12 12 11 12 12 11 11 11 11 11 11 12 13 13 13 14 14 14 15 15 15 15 15 15 15 15 14 13 14 14
20 20 19 16 15 15 15 15 13 13 14 14 13 13 12 12 12 12 12 12 11 11 12 12 12 13 13 14 15 15 15 16 16 16 16 16 16 16 15 15 15 15 15
19 19 19 18 16 17 17 16 15 15 15 14 14 13 13 13 13 13 13 13 13 13 13 13 14 14 15 16 16 17 17 16 16 16 17 17 16 16 16 16 17 17 17
19 19 20 18 18 18 17 17 16 15 15 15 14 14 14 14 13 14 14 14 14 14 14 15 15 15 16 16 17 18 18 18 18 17 18 17 17 17 18 18 18 19 19
19 19 18 18 18 19 18 17 17 16 16 16 15 15 14 14 14 14 14 14 14 14 15 15 16 16 17 17 18 18 18 19 19 19 19 19 19 19 20 20 20 21 21
20 20 19 19 20 19 19 18 17 17 16 16 16 15 15 16 16 16 16 16 16 15 16 16 17 17 18 18 18 19 19 19 20 21 21 20 20 21 21 22 22 22 22
21 20 20 20 19 19 19 18 18 18 17 17 17 17 16 16 16 17 17 17 17 17 17 17 17 18 19 19 19 20 20 21 21 21 21 21 21 21 22 22 22 23 23
22 22 22 21 20 20 20 19 19 19 18 18 18 18 18 18 17 18 18 18 17 17 18 18 18 19 19 20 20 21 22 22 22 22 23 23 23 23 23 23 24 25 25
21 21 22 21 21 20 20 20 20 20 20 20 19 19 19 19 19 19 18 18 18 19 19 19 19 20 20 21 22 23 23 23 23 24 24 24 25 25 25 24 24 24 24
22 21 20 20 21 21 21 20 21 21 21 21 21 21 21 20 20 20 20 20 20 21 20 20 20 21 22 23 23 24 24 24 24 24 25 25 26 25 25 26 25 25 25
22 22 22 22 23 23 22 22 22 21 22 22 22 23 23 22 23 22 21 21 22 22 22 21 21 21 21 22 23 23 24 24 24 25 25 25 26 26 26 26 25 25 25
23 23 23 23 24 24 23 23 23 23 22 23 24 24 24 24 23 23 23 23 22 22 23 22 22 22 22 23 23 24 25 25 24 24 24 24 25 26 26 26 26 26 25
25 25 25 25 25 25 25 24 24 24 25 25 25 25 25 24 24 24 23 23 23 23 23 23 22 22 23 23 24 25 25 24 24 24 24 24 24 25 25 26 26 26 26
26 26 26 26 26 26 26 26 25 25 25 26 26 26 25 25 25 24 24 24 24 23 23 23 23 22 22 23 23 23 23 23 23 23 23 24 24 24 25 26 26 26 26
28 28 28 28 28 28 27 27 27 27 26 26 26 26 25 25 25 25 25 25 24 24 24 24 24 24 24 23 23 23 22 21 22 22 23 23 24 25 25 25 25 26 25
28 29 30 29 29 29 28 28 27 27 26 26 25 25 26 26 26 26 26 25 25 25 25 24 24 23 23 23 23 23 23 22 23 23 23 23 23 24 25 26 26 26 26
30 30 31 30 29 29 28 27 27 27 27 27 27 27 27 28 28 28 27 27 27 26 26 25 24 23 23 23 23 23 23 23 23 23 23 23 24 25 25 25 26 25 26
30 31 29 29 29 28 28 27 28 28 28 28 28 28 28 29 29 29 28 28 28 27 26 25 24 24 23 23 23 23 23 22 23 23 23 24 24 25 25 25 25 26 26
30 29 29 29 29 28 27 28 29 28 28 28 28 28 28 29 29 29 28 28 27 27 27 26 25 25 25 24 24 23 23 23 24 24 24 24 25 24 24 25 25 25 25
Wind_Direction
289 289 288 287 289 292 295 296 295 299 299 298 294 290 289 284 275 272 273 276 280 274 265 257 253 252 250 253 259 263 265 270 275 272 269 266 264 268 271 275 279 278 275
284 286 288 283 285 289 293 295 295 295 296 297 296 289 285 279 273 269 269 271 269 266 266 261 261 260 260 261 261 266 270 270 270 269 268 264 262 265 269 274 278 277 276
280 281 284 284 284 288 291 297 293 295 295 295 293 292 284 274 273 268 269 267 265 264 264 262 263 259 258 261 260 263 266 267 267 268 267 262 261 265 268 270 273 274 274
276 278 282 284 284 284 286 290 289 290 292 292 288 286 283 279 274 268 268 270 269 267 265 263 261 258 259 259 262 264 269 267 269 270 269 268 270 269 268 267 267 271 272
274 275 279 283 280 278 281 284 284 284 286 288 288 284 280 280 275 270 268 269 271 270 264 261 257 256 259 262 266 267 268 269 272 272 271 270 272 271 268 266 267 268 269
270 272 275 279 275 273 276 277 277 279 282 285 284 280 277 277 278 274 270 269 268 267 262 258 255 257 259 260 265 267 268 269 270 273 273 272 272 269 267 267 267 267 267
269 272 275 275 273 270 272 271 272 273 277 279 278 274 275 277 275 277 273 268 265 264 262 263 263 263 261 261 265 266 265 269 271 274 275 274 271 269 266 265 266 268 268
269 269 272 272 272 270 270 268 271 273 275 276 274 271 272 274 272 268 270 272 267 264 266 269 268 265 262 263 266 266 265 267 270 273 274 274 272 271 268 265 265 265 268
269 267 267 268 270 269 265 266 269 271 272 273 274 271 272 274 272 269 268 268 271 271 269 269 271 270 266 267 267 268 266 267 270 273 274 276 276 272 268 268 268 267 265
273 273 271 270 268 270 267 265 268 269 268 269 269 268 270 271 271 270 269 271 269 272 272 270 271 271 269 268 268 268 267 268 271 273 274 274 272 274 271 269 270 270 267
272 272 272 275 275 269 267 265 267 266 265 266 265 265 265 267 269 269 271 274 273 275 275 273 274 273 273 269 268 270 268 267 269 272 274 271 272 273 272 271 271 272 270
271 271 272 273 274 274 269 269 269 267 264 265 266 266 267 271 273 272 273 273 274 276 278 278 277 274 272 271 270 272 271 270 271 272 272 272 273 272 273 272 272 272 270
270 271 271 272 272 273 272 271 272 270 268 267 268 270 271 271 271 270 271 271 272 274 276 276 276 273 271 271 272 272 271 270 272 272 272 272 273 272 272 271 272 271 270
268 271 272 271 271 271 271 271 271 271 270 267 268 270 271 271 270 269 269 271 272 275 275 275 275 274 273 272 273 271 271 271 271 272 273 275 276 276 273 271 272 272 271
269 269 270 270 272 273 272 271 272 273 271 269 268 269 270 272 272 270 269 271 274 276 277 276 274 274 274 274 273 272 272 271 271 272 274 277 278 278 275 273 272 272 271
271 267 267 268 272 273 272 272 271 269 267 267 268 268 269 270 271 271 270 271 273 276 277 276 275 275 275 274 274 273 271 271 271 271 273 274 276 276 275 274 273 273 272
276 273 268 267 270 273 273 272 270 269 267 266 267 269 270 269 270 271 272 271 273 275 276 277 277 277 276 275 275 274 271 271 271 272 273 274 274 275 274 272 273 274 273
275 274 271 270 270 270 272 272 271 269 268 265 266 269 270 272 271 270 272 273 274 274 276 277 277 277 277 277 276 275 273 273 271 272 273 273 273 274 275 274 274 275 273
270 272 271 270 271 272 273 270 271 270 269 267 268 268 270 271 271 270 271 273 273 272 274 275 276 277 278 277 277 278 278 276 274 273 273 273 273 274 275 276 275 275 274
267 269 271 271 272 272 273 273 274 274 272 269 266 266 267 269 270 270 272 272 271 272 273 273 274 276 277 277 277 278 279 277 275 274 273 273 274 273 273 274 275 274 274
267 269 272 272 272 273 272 272 272 273 275 270 267 267 268 268 268 270 272 272 270 270 271 273 274 276 278 278 278 278 277 276 275 275 275 273 272 272 273 273 273 274 273
268 270 272 272 271 272 271 271 271 272 275 274 270 268 269 269 270 270 270 270 270 271 272 273 273 275 277 279 279 278 277 276 275 275 274 274 273 274 275 277 276 275 274
269 270 271 271 268 270 272 271 271 271 273 274 271 270 271 273 274 272 271 271 273 274 274 275 276 275 276 278 277 276 277 277 277 275 274 275 276 278 278 278 279 277 277
270 271 271 269 269 271 272 271 269 268 271 272 273 272 272 273 273 274 273 273 274 276 275 276 276 276 276 277 277 276 276 276 277 278 278 278 278 279 279 279 279 279 278
269 269 270 271 271 270 269 270 269 268 269 271 273 274 272 273 273 273 274 275 274 273 274 274 274 276 277 278 277 277 277 276 276 278 278 280 281 280 279 279 280 280 280
268 269 270 270 271 270 270 269 268 269 269 270 272 273 273 272 272 273 273 273 273 273 272 271 273 275 277 277 276 277 277 276 276 277 278 280 282 281 280 280 279 281 282
Height
5874 5874 5873 5871 5871 5870 5869 5868 5867 5866 5864 5863 5862 5861 5860 5860 5860 5860 5860 5859 5859 5859 5859 5860 5860 5860 5860 5860 5861 5861 5861 5861 5861 5861 5861 5861 5861 5861 5861 5860 5860 5860 5860
5870 5870 5869 5867 5867 5866 5866 5864 5862 5862 5861 5860 5859 5859 5858 5857 5857 5857 5857 5857 5857 5857 5857 5857 5857 5858 5858 5858 5858 5859 5859 5859 5859 5859 5859 5859 5859 5859 5858 5858 5857 5857 5857
5866 5866 5865 5864 5863 5862 5862 5861 5859 5858 5858 5857 5856 5856 5855 5854 5854 5854 5854 5854 5854 5854 5854 5854 5855 5855 5855 5855 5855 5855 5856 5856 5856 5856 5856 5856 5856 5856 5856 5855 5855 5854 5854
5861 5861 5861 5860 5859 5857 5857 5856 5856 5855 5854 5853 5853 5852 5852 5851 5851 5851 5851 5851 5851 5851 5851 5851 5851 5852 5852 5852 5852 5852 5852 5853 5853 5852 5852 5852 5852 5852 5852 5852 5851 5851 5851
5856 5856 5856 5855 5854 5853 5852 5852 5852 5851 5850 5850 5849 5849 5848 5848 5847 5847 5847 5847 5848 5848 5848 5848 5848 5848 5849 5849 5849 5849 5849 5849 5849 5849 5849 5849 5848 5848 5848 5848 5848 5847 5847
5851 5851 5851 5850 5849 5849 5848 5848 5847 5847 5847 5846 5846 5845 5845 5844 5844 5844 5843 5844 5844 5844 5844 5844 5844 5844 5845 5845 5846 5846 5846 5846 5846 5846 5845 5845 5845 5845 5845 5844 5844 5844 5843
5845 5846 5846 5846 5846 5845 5844 5844 5843 5843 5843 5843 5842 5841 5841 5841 5841 5840 5840 5840 5840 5841 5841 5841 5841 5841 5842 5842 5842 5842 5842 5842 5842 5842 5842 5841 5841 5841 5841 5841 5840 5840 5840
5841 5841 5841 5841 5841 5841 5840 5840 5839 5839 5839 5838 5838 5838 5837 5837 5837 5837 5837 5837 5837 5837 5837 5837 5838 5838 5838 5838 5838 5838 5838 5838 5838 5838 5838 5837 5837 5837 5837 5837 5837 5836 5836
5835 5836 5836 5836 5836 5836 5836 5835 5835 5835 5835 5834 5834 5834 5833 5833 5833 5833 5833 5833 5833 5834 5834 5834 5834 5834 5834 5834 5834 5834 5834 5834 5834 5834 5833 5833 5833 5832 5832 5832 5832 5832 5832
5830 5831 5831 5831 5831 5832 5831 5830 5831 5831 5830 5830 5830 5830 5830 5829 5829 5829 5829 5829 5830 5830 5830 5830 5830 5830 5830 5829 5829 5829 5829 5829 5829 5829 5829 5828 5828 5828 5827 5827 5827 5827 5827
5825 5826 5826 5826 5826 5825 5825 5826 5826 5825 5826 5825 5825 5825 5825 5825 5825 5825 5825 5826 5826 5826 5826 5826 5826 5826 5825 5824 5824 5824 5824 5824 5824 5824 5823 5823 5823 5822 5822 5822 5821 5821 5820
5820 5821 5821 5821 5820 5820 5820 5820 5820 5820 5821 5821 5821 5821 5820 5820 5820 5820 5821 5821 5822 5822 5821 5821 5821 5821 5820 5820 5819 5819 5819 5819 5819 5818 5818 5818 5817 5817 5816 5816 5815 5815 5814
5816 5816 5816 5816 5816 5816 5816 5816 5816 5816 5816 5816 5816 5816 5816 5816 5816 5816 5816 5817 5817 5817 5817 5816 5816 5815 5815 5815 5814 5814 5814 5813 5813 5813 5812 5812 5811 5811 5810 5809 5809 5808 5807
5810 5810 5810 5810 5811 5810 5810 5811 5811 5811 5811 5811 5811 5811 5811 5811 5811 5811 5811 5811 5811 5812 5811 5811 5811 5810 5810 5809 5809 5808 5808 5807 5807 5807 5806 5805 5805 5804 5803 5803 5802 5801 5801
5804 5804 5804 5804 5805 5805 5805 5805 5805 5805 5805 5806 5806 5806 5806 5806 5806 5806 5806 5806 5806 5806 5806 5805 5805 5804 5804 5804 5803 5802 5802 5801 5801 5800 5800 5799 5798 5797 5796 5796 5795 5794 5794
5798 5798 5798 5798 5799 5799 5799 5799 5800 5800 5800 5800 5800 5800 5800 5800 5800 5800 5800 5800 5800 5800 5800 5799 5799 5798 5798 5797 5796 5796 5795 5794 5794 5793 5793 5792 5791 5791 5789 5788 5787 5787 5786
5792 5792 5792 5792 5793 5794 5793 5793 5793 5793 5794 5794 5794 5794 5794 5794 5794 5794 5794 5794 5794 5793 5793 5793 5792 5792 5791 5790 5789 5788 5788 5787 5787 5786 5785 5785 5784 5783 5782 5781 5780 5780 5779
5786 5786 5786 5786 5787 5787 5787 5786 5787 5787 5787 5787 5787 5787 5787 5787 5787 5787 5787 5787 5787 5786 5786 5786 5785 5784 5783 5783 5782 5781 5780 5780 5779 5779 5778 5777 5776 5775 5774 5773 5773 5772 5771
5780 5780 5780 5780 5780 5780 5780 5779 5779 5779 5780 5779 5779 5779 5779 5780 5779 5780 5779 5779 5779 5779 5779 5778 5778 5777 5776 5775 5775 5774 5773 5772 5771 5771 5770 5769 5768 5768 5767 5766 5766 5765 5764
5774 5774 5773 5773 5773 5773 5773 5772 5772 5772 5771 5771 5772 5772 5771 5772 5772 5772 5772 5771 5771 5771 5771 5771 5770 5770 5769 5768 5767 5766 5765 5764 5764 5763 5762 5761 5760 5760 5759 5758 5757 5757 5756
5766 5766 5766 5766 5766 5765 5765 5765 5765 5765 5765 5764 5764 5763 5764 5764 5764 5764 5764 5764 5763 5763 5763 5763 5763 5762 5761 5760 5759 5758 5757 5756 5756 5755 5754 5754 5753 5752 5751 5750 5749 5749 5748
5758 5758 5758 5757 5757 5757 5757 5757 5757 5757 5757 5756 5756 5756 5756 5756 5756 5756 5756 5756 5755 5756 5755 5755 5754 5754 5753 5752 5751 5750 5749 5749 5748 5747 5747 5746 5745 5744 5743 5742 5741 5740 5739
5750 5750 5749 5748 5748 5748 5748 5748 5749 5749 5749 5749 5748 5748 5748 5748 5748 5748 5747 5747 5747 5748 5747 5747 5746 5746 5745 5745 5744 5743 5742 5741 5741 5740 5739 5738 5737 5736 5735 5734 5732 5731 5730
5741 5741 5740 5739 5740 5740 5740 5740 5740 5740 5740 5741 5741 5740 5740 5740 5740 5740 5740 5740 5739 5739 5739 5739 5739 5738 5738 5737 5736 5735 5735 5734 5733 5732 5731 5730 5729 5728 5726 5725 5724 5722 5721
5732 5732 5731 5731 5730 5731 5731 5731 5731 5732 5732 5732 5732 5732 5732 5732 5732 5731 5731 5731 5731 5731 5731 5731 5731 5730 5730 5729 5729 5728 5727 5726 5726 5725 5724 5723 5722 5720 5719 5717 5716 5714 5713
5723 5722 5722 5722 5722 5721 5721 5722 5722 5723 5723 5724 5724 5724 5724 5723 5723 5723 5723 5723 5723 5723 5723 5723 5723 5723 5722 5721 5721 5720 5719 5719 5718 5717 5716 5715 5714 5712 5711 5710 5708 5707 5705